• In Deutschland
  • Länderverzeichnis
  • Für 7 Tage
  • Wassertemperatur
  • Satellitenkarten
  • Wetterkarte
  • Widgets
  • user-avatar
    Anmelden

    Stündliche Wetter Mühlacker

    Heute, 23 Juni, Samstag

    Zeit Temperatur Niederschläge Wind Luftdruck Luftfeuchtigkeit
    00:00 +10°C° 0 mm 1 m/S 747 mmHg 81%
    01:00 +10°C° 0 mm 1 m/S 747 mmHg 84%
    02:00 +9°C° 0 mm 1 m/S 747 mmHg 85%
    03:00 +9°C° 0 mm 1 m/S 747 mmHg 87%
    04:00 +9°C° 0 mm 1 m/S 747 mmHg 89%
    05:00 +10°C° 0 mm 1 m/S 747 mmHg 85%
    06:00 +11°C° 0 mm 1 m/S 747 mmHg 81%
    07:00 +12°C° 0 mm 1 m/S 747 mmHg 77%
    08:00 +14°C° 0 mm 2 m/S 747 mmHg 71%
    09:00 +15°C° 0 mm 2 m/S 747 mmHg 65%
    10:00 +16°C° 0 mm 2 m/S 747 mmHg 60%
    11:00 +17°C° 0 mm 2 m/S 746 mmHg 56%
    12:00 +18°C° 0 mm 3 m/S 746 mmHg 52%
    13:00 +19°C° 0 mm 3 m/S 746 mmHg 48%
    14:00 +19°C° 0 mm 3 m/S 746 mmHg 49%
    15:00 +19°C° 0 mm 3 m/S 746 mmHg 50%
    16:00 +20°C° 0 mm 3 m/S 745 mmHg 51%
    17:00 +19°C° 0 mm 3 m/S 745 mmHg 55%
    18:00 +18°C° 0 mm 3 m/S 745 mmHg 60%
    19:00 +17°C° 0 mm 2 m/S 745 mmHg 64%
    20:00 +15°C° 0 mm 2 m/S 745 mmHg 68%
    21:00 +14°C° 0 mm 1 m/S 745 mmHg 73%
    22:00 +12°C° 0 mm 1 m/S 746 mmHg 78%
    23:00 +12°C° 0 mm 1 m/S 746 mmHg 80%

    Morgen, 24 Juni, Sonntag

    Zeit Temperatur Niederschläge Wind Luftdruck Luftfeuchtigkeit
    00:00 +11°C° 0 mm 1 m/S 745 mmHg 81%
    01:00 +10°C° 0 mm 0 m/S 745 mmHg 83%
    02:00 +10°C° 0 mm 0 m/S 745 mmHg 83%
    03:00 +10°C° 0 mm 0 m/S 745 mmHg 83%
    04:00 +10°C° 0 mm 0 m/S 745 mmHg 83%
    05:00 +11°C° 0 mm 0 m/S 745 mmHg 79%
    06:00 +12°C° 0 mm 0 m/S 745 mmHg 76%
    07:00 +13°C° 0 mm 0 m/S 744 mmHg 72%
    08:00 +15°C° 0 mm 0 m/S 744 mmHg 67%
    09:00 +19°C° 0 mm 1 m/S 744 mmHg 62%
    10:00 +20°C° 0 mm 1 m/S 744 mmHg 56%
    11:00 +21°C° 0 mm 1 m/S 744 mmHg 56%
    12:00 +21°C° 0 mm 1 m/S 744 mmHg 55%
    13:00 +20°C° 0 mm 2 m/S 744 mmHg 55%
    14:00 +20°C° 0 mm 2 m/S 743 mmHg 54%
    15:00 +21°C° 0 mm 2 m/S 743 mmHg 54%
    16:00 +21°C° 0 mm 2 m/S 743 mmHg 54%
    17:00 +20°C° 0 mm 2 m/S 743 mmHg 58%
    18:00 +20°C° 0 mm 2 m/S 743 mmHg 63%
    19:00 +19°C° 0 mm 2 m/S 743 mmHg 67%
    20:00 +18°C° 0 mm 1 m/S 743 mmHg 71%
    21:00 +16°C° 0 mm 1 m/S 744 mmHg 76%
    22:00 +14°C° 0 mm 1 m/S 744 mmHg 80%
    23:00 +14°C° 0 mm 1 m/S 744 mmHg 82%

    übermorgen, 25 Juni, Montag

    Zeit Temperatur Niederschläge Wind Luftdruck Luftfeuchtigkeit
    00:00 +13°C° 0 mm 1 m/S 744 mmHg 84%
    01:00 +13°C° 0 mm 1 m/S 744 mmHg 86%
    02:00 +12°C° 0 mm 1 m/S 744 mmHg 87%
    03:00 +12°C° 0 mm 1 m/S 744 mmHg 88%
    04:00 +12°C° 0 mm 1 m/S 744 mmHg 89%
    05:00 +13°C° 0 mm 1 m/S 744 mmHg 86%
    06:00 +14°C° 0 mm 1 m/S 744 mmHg 82%
    07:00 +15°C° 0 mm 1 m/S 744 mmHg 78%
    08:00 +17°C° 0 mm 2 m/S 745 mmHg 72%
    09:00 +18°C° 0 mm 2 m/S 745 mmHg 67%
    10:00 +20°C° 0 mm 2 m/S 745 mmHg 61%
    11:00 +20°C° 0 mm 2 m/S 745 mmHg 60%
    12:00 +21°C° 0 mm 2 m/S 745 mmHg 58%
    13:00 +21°C° 0 mm 2 m/S 745 mmHg 57%
    14:00 +22°C° 0 mm 3 m/S 745 mmHg 58%
    15:00 +22°C° 0 mm 3 m/S 745 mmHg 60%
    16:00 +22°C° 0 mm 3 m/S 745 mmHg 61%
    17:00 +21°C° 0 mm 3 m/S 745 mmHg 64%
    18:00 +20°C° 0 mm 3 m/S 745 mmHg 68%
    19:00 +20°C° 0 mm 2 m/S 745 mmHg 71%
    20:00 +18°C° 0 mm 2 m/S 745 mmHg 76%
    21:00 +18°C° 0 mm 1 m/S 745 mmHg 81%
    22:00 +15°C° 0 mm 1 m/S 746 mmHg 86%
    23:00 +15°C° 0 mm 1 m/S 746 mmHg 87%

    26 Juni, Dienstag

    Zeit Temperatur Niederschläge Wind Luftdruck Luftfeuchtigkeit
    00:00 +15°C° 0 mm 1 m/S 746 mmHg 89%
    01:00 +14°C° 0 mm 1 m/S 745 mmHg 90%
    02:00 +14°C° 0 mm 1 m/S 745 mmHg 90%
    03:00 +13°C° 0 mm 1 m/S 745 mmHg 91%
    04:00 +13°C° 0 mm 1 m/S 745 mmHg 91%
    05:00 +14°C° 0 mm 1 m/S 745 mmHg 87%
    06:00 +16°C° 0 mm 1 m/S 745 mmHg 82%
    07:00 +18°C° 0 mm 1 m/S 745 mmHg 78%
    08:00 +19°C° 0 mm 2 m/S 745 mmHg 71%
    09:00 +20°C° 0 mm 2 m/S 745 mmHg 65%
    10:00 +22°C° 0 mm 3 m/S 745 mmHg 59%
    11:00 +24°C° 0 mm 3 m/S 745 mmHg 58%
    12:00 +25°C° 0 mm 3 m/S 745 mmHg 56%
    13:00 +25°C° 0 mm 3 m/S 745 mmHg 55%
    14:00 +26°C° 0 mm 3 m/S 745 mmHg 56%
    15:00 +26°C° 0 mm 4 m/S 744 mmHg 57%
    16:00 +26°C° 0 mm 4 m/S 744 mmHg 58%
    17:00 +25°C° 0 mm 4 m/S 744 mmHg 62%
    18:00 +24°C° 0 mm 3 m/S 744 mmHg 66%
    19:00 +22°C° 0 mm 3 m/S 744 mmHg 71%
    20:00 +21°C° 0 mm 3 m/S 744 mmHg 76%
    21:00 +19°C° 0 mm 3 m/S 745 mmHg 81%
    22:00 +18°C° 0 mm 2 m/S 745 mmHg 86%
    23:00 +17°C° 0 mm 2 m/S 745 mmHg 88%

    27 Juni, Mittwoch

    Zeit Temperatur Niederschläge Wind Luftdruck Luftfeuchtigkeit
    00:00 +17°C° 0 mm 2 m/S 744 mmHg 89%
    01:00 +16°C° 0 mm 2 m/S 744 mmHg 91%
    02:00 +16°C° 0 mm 2 m/S 744 mmHg 91%
    03:00 +15°C° 0 mm 2 m/S 744 mmHg 92%
    04:00 +15°C° 0 mm 2 m/S 744 mmHg 93%
    05:00 +16°C° 0 mm 2 m/S 744 mmHg 88%
    06:00 +17°C° 0 mm 2 m/S 744 mmHg 83%
    07:00 +18°C° 0 mm 2 m/S 745 mmHg 79%
    08:00 +20°C° 0 mm 3 m/S 745 mmHg 71%
    09:00 +22°C° 0 mm 4 m/S 744 mmHg 64%
    10:00 +25°C° 0 mm 4 m/S 744 mmHg 56%
    11:00 +26°C° 0 mm 4 m/S 744 mmHg 53%
    12:00 +27°C° 0 mm 4 m/S 744 mmHg 51%
    13:00 +28°C° 0 mm 5 m/S 744 mmHg 48%
    14:00 +28°C° 0 mm 5 m/S 744 mmHg 48%
    15:00 +28°C° 0 mm 5 m/S 743 mmHg 48%
    16:00 +29°C° 0 mm 5 m/S 743 mmHg 49%
    17:00 +28°C° 0 mm 4 m/S 743 mmHg 53%
    18:00 +27°C° 0 mm 4 m/S 743 mmHg 58%
    19:00 +26°C° 0 mm 3 m/S 743 mmHg 63%
    20:00 +24°C° 0 mm 3 m/S 743 mmHg 66%
    21:00 +22°C° 0 mm 3 m/S 743 mmHg 69%
    22:00 +20°C° 0 mm 3 m/S 744 mmHg 72%
    23:00 +20°C° 0 mm 3 m/S 744 mmHg 74%

    28 Juni, Donnerstag

    Zeit Temperatur Niederschläge Wind Luftdruck Luftfeuchtigkeit
    00:00 +19°C° 0 mm 3 m/S 743 mmHg 76%
    01:00 +18°C° 0 mm 3 m/S 743 mmHg 78%
    02:00 +18°C° 0 mm 3 m/S 743 mmHg 80%
    03:00 +17°C° 0 mm 3 m/S 743 mmHg 82%
    04:00 +17°C° 0 mm 3 m/S 743 mmHg 85%
    05:00 +18°C° 0 mm 3 m/S 743 mmHg 81%
    06:00 +18°C° 0 mm 3 m/S 743 mmHg 77%
    07:00 +19°C° 0 mm 3 m/S 743 mmHg 73%
    08:00 +21°C° 0 mm 4 m/S 743 mmHg 66%
    09:00 +23°C° 0 mm 4 m/S 743 mmHg 60%
    10:00 +25°C° 0 mm 5 m/S 743 mmHg 53%
    11:00 +26°C° 0 mm 5 m/S 743 mmHg 50%
    12:00 +28°C° 0 mm 5 m/S 743 mmHg 47%
    13:00 +29°C° 0 mm 5 m/S 743 mmHg 44%
    14:00 +29°C° 0 mm 5 m/S 743 mmHg 44%
    15:00 +29°C° 0 mm 5 m/S 742 mmHg 43%
    16:00 +29°C° 0 mm 5 m/S 742 mmHg 43%
    17:00 +28°C° 0 mm 4 m/S 742 mmHg 48%
    18:00 +27°C° 0 mm 4 m/S 742 mmHg 53%
    19:00 +26°C° 0 mm 3 m/S 742 mmHg 59%
    20:00 +25°C° 0 mm 3 m/S 742 mmHg 62%
    21:00 +22°C° 0 mm 3 m/S 742 mmHg 65%
    22:00 +21°C° 0 mm 3 m/S 743 mmHg 69%
    23:00 +20°C° 0 mm 3 m/S 742 mmHg 72%
    Mehr zeigen